Time,TemperatureF,DewpointF,PressureIn,WindDirection,WindDirectionDegrees,WindSpeedMPH,WindSpeedGustMPH,Humidity,HourlyPrecipIn,Conditions,Clouds,dailyrainin,SoftwareType,DateUTC
2013-02-25 00:01:00,50.0,19.0,-100.00,SSE,155,7.0,11.0,29,0.00,,,0.00,,2013-02-25 08:01:00,
2013-02-25 00:11:00,50.0,19.0,-100.00,SSE,155,7.0,11.0,29,0.00,,,0.00,,2013-02-25 08:11:00,
2013-02-25 00:42:00,49.0,18.0,-100.00,SSE,165,7.0,12.0,29,0.00,,,0.00,,2013-02-25 08:42:00,
2013-02-25 00:52:00,49.0,18.0,-100.00,SSE,165,7.0,12.0,29,0.00,,,0.00,,2013-02-25 08:52:00,
2013-02-25 01:01:00,49.0,18.0,-100.00,SSE,165,7.0,12.0,29,0.00,,,0.00,,2013-02-25 09:01:00,
2013-02-25 01:12:00,49.0,18.0,-100.00,SSE,165,7.0,12.0,29,0.00,,,0.00,,2013-02-25 09:12:00,
2013-02-25 01:32:00,50.0,18.0,-100.00,SSE,165,9.0,13.0,28,0.00,,,0.00,,2013-02-25 09:32:00,
2013-02-25 01:42:00,50.0,18.0,-100.00,SSE,165,9.0,13.0,28,0.00,,,0.00,,2013-02-25 09:42:00,
2013-02-25 01:52:00,50.0,18.0,-100.00,SSE,165,9.0,13.0,28,0.00,,,0.00,,2013-02-25 09:52:00,
2013-02-25 02:01:00,50.0,18.0,-100.00,SSE,165,9.0,13.0,28,0.00,,,0.00,,2013-02-25 10:01:00,
2013-02-25 02:11:00,50.0,18.0,-100.00,SSE,165,9.0,13.0,28,0.00,,,0.00,,2013-02-25 10:11:00,
2013-02-25 02:42:00,50.0,20.0,-100.00,SSE,152,7.0,13.0,30,0.00,,,0.00,,2013-02-25 10:42:00,
2013-02-25 02:52:00,50.0,20.0,-100.00,SSE,152,7.0,13.0,30,0.00,,,0.00,,2013-02-25 10:52:00,
2013-02-25 03:01:00,50.0,20.0,-100.00,SSE,152,7.0,13.0,30,0.00,,,0.00,,2013-02-25 11:01:00,
2013-02-25 03:11:00,50.0,20.0,-100.00,SSE,152,7.0,13.0,30,0.00,,,0.00,,2013-02-25 11:11:00,
2013-02-25 03:32:00,45.0,22.0,-100.00,WSW,246,3.0,13.0,39,0.00,,,0.00,,2013-02-25 11:32:00,
2013-02-25 03:42:00,45.0,22.0,-100.00,WSW,246,3.0,13.0,39,0.00,,,0.00,,2013-02-25 11:42:00,
2013-02-25 03:52:00,45.0,22.0,-100.00,WSW,246,3.0,13.0,39,0.00,,,0.00,,2013-02-25 11:52:00,
2013-02-25 04:01:00,45.0,22.0,-100.00,WSW,246,3.0,13.0,39,0.00,,,0.00,,2013-02-25 12:01:00,
2013-02-25 04:11:00,45.0,22.0,-100.00,WSW,246,3.0,13.0,39,0.00,,,0.00,,2013-02-25 12:11:00,
2013-02-25 04:32:00,44.0,21.0,-100.00,SW,215,6.0,10.0,40,0.00,,,0.00,,2013-02-25 12:32:00,
2013-02-25 04:42:00,44.0,21.0,-100.00,SW,215,6.0,10.0,40,0.00,,,0.00,,2013-02-25 12:42:00,
2013-02-25 04:55:00,44.0,21.0,-100.00,SW,215,6.0,10.0,40,0.00,,,0.00,,2013-02-25 12:55:00,
2013-02-25 05:02:00,44.0,21.0,-100.00,SW,215,6.0,10.0,40,0.00,,,0.00,,2013-02-25 13:02:00,
2013-02-25 05:12:00,44.0,21.0,-100.00,SW,215,6.0,10.0,40,0.00,,,0.00,,2013-02-25 13:12:00,
2013-02-25 05:42:00,42.0,30.0,-100.00,SW,232,4.0,9.0,62,0.00,,,0.00,,2013-02-25 13:42:00,
2013-02-25 05:52:00,42.0,30.0,-100.00,SW,232,4.0,9.0,62,0.00,,,0.00,,2013-02-25 13:52:00,
2013-02-25 06:02:00,42.0,30.0,-100.00,SW,232,4.0,9.0,62,0.00,,,0.00,,2013-02-25 14:02:00,
2013-02-25 06:14:00,42.0,30.0,-100.00,SW,232,4.0,9.0,62,0.00,,,0.00,,2013-02-25 14:14:00,
2013-02-25 06:32:00,43.0,22.0,-100.00,SSW,210,3.0,13.0,43,0.00,,,0.00,,2013-02-25 14:32:00,
2013-02-25 06:42:00,43.0,22.0,-100.00,SSW,210,3.0,13.0,43,0.00,,,0.00,,2013-02-25 14:42:00,
2013-02-25 06:52:00,43.0,22.0,-100.00,SSW,210,3.0,13.0,43,0.00,,,0.00,,2013-02-25 14:52:00,
2013-02-25 07:02:00,43.0,22.0,-100.00,SSW,210,3.0,13.0,43,0.00,,,0.00,,2013-02-25 15:02:00,
2013-02-25 07:11:00,43.0,22.0,-100.00,SSW,210,3.0,13.0,43,0.00,,,0.00,,2013-02-25 15:11:00,
2013-02-25 07:32:00,41.0,22.0,-100.00,SW,229,7.0,10.0,47,0.00,,,0.00,,2013-02-25 15:32:00,
2013-02-25 07:42:00,41.0,22.0,-100.00,SW,229,7.0,10.0,47,0.00,,,0.00,,2013-02-25 15:42:00,
2013-02-25 07:52:00,41.0,22.0,-100.00,SW,229,7.0,10.0,47,0.00,,,0.00,,2013-02-25 15:52:00,
2013-02-25 08:01:00,41.0,22.0,-100.00,SW,229,7.0,10.0,47,0.00,,,0.00,,2013-02-25 16:01:00,
2013-02-25 08:11:00,41.0,22.0,-100.00,SW,229,7.0,10.0,47,0.00,,,0.00,,2013-02-25 16:11:00,
2013-02-25 08:42:00,43.0,36.0,-100.00,WSW,255,6.0,10.0,75,0.00,,,0.00,,2013-02-25 16:42:00,
2013-02-25 08:52:00,43.0,36.0,-100.00,WSW,255,6.0,10.0,75,0.00,,,0.00,,2013-02-25 16:52:00,
2013-02-25 09:01:00,43.0,36.0,-100.00,WSW,255,6.0,10.0,75,0.00,,,0.00,,2013-02-25 17:01:00,
2013-02-25 09:11:00,43.0,36.0,-100.00,WSW,255,6.0,10.0,75,0.00,,,0.00,,2013-02-25 17:11:00,
2013-02-25 09:42:00,49.0,33.0,-100.00,South,176,4.0,6.0,54,0.00,,,0.00,,2013-02-25 17:42:00,
2013-02-25 09:52:00,49.0,33.0,-100.00,South,176,4.0,6.0,54,0.00,,,0.00,,2013-02-25 17:52:00,
2013-02-25 10:01:00,49.0,33.0,-100.00,South,176,4.0,6.0,54,0.00,,,0.00,,2013-02-25 18:01:00,
2013-02-25 10:12:00,49.0,33.0,-100.00,South,176,4.0,6.0,54,0.00,,,0.00,,2013-02-25 18:12:00,
2013-02-25 10:42:00,52.0,30.0,-100.00,SW,230,5.0,7.0,42,0.00,,,0.00,,2013-02-25 18:42:00,
2013-02-25 10:52:00,52.0,30.0,-100.00,SW,230,5.0,7.0,42,0.00,,,0.00,,2013-02-25 18:52:00,
2013-02-25 11:01:00,52.0,30.0,-100.00,SW,230,5.0,7.0,42,0.00,,,0.00,,2013-02-25 19:01:00,
2013-02-25 11:11:00,52.0,30.0,-100.00,SW,230,5.0,7.0,42,0.00,,,0.00,,2013-02-25 19:11:00,
2013-02-25 11:42:00,54.0,37.0,-100.00,WSW,255,9.0,13.0,52,0.00,,,0.00,,2013-02-25 19:42:00,
2013-02-25 11:52:00,54.0,37.0,-100.00,WSW,255,9.0,13.0,52,0.00,,,0.00,,2013-02-25 19:52:00,
2013-02-25 12:01:00,54.0,37.0,-100.00,WSW,255,9.0,13.0,52,0.00,,,0.00,,2013-02-25 20:01:00,
2013-02-25 12:11:00,54.0,37.0,-100.00,WSW,255,9.0,13.0,52,0.00,,,0.00,,2013-02-25 20:11:00,
2013-02-25 12:42:00,55.0,36.0,-100.00,WSW,250,12.0,16.0,49,0.00,,,0.00,,2013-02-25 20:42:00,
2013-02-25 12:52:00,55.0,36.0,-100.00,WSW,250,12.0,16.0,49,0.00,,,0.00,,2013-02-25 20:52:00,
2013-02-25 13:01:00,55.0,36.0,-100.00,WSW,250,12.0,16.0,49,0.00,,,0.00,,2013-02-25 21:01:00,
2013-02-25 13:11:00,55.0,36.0,-100.00,WSW,250,12.0,16.0,49,0.00,,,0.00,,2013-02-25 21:11:00,
2013-02-25 13:42:00,55.0,35.0,-100.00,WSW,255,12.0,20.0,47,0.00,,,0.00,,2013-02-25 21:42:00,
2013-02-25 13:52:00,55.0,35.0,-100.00,WSW,255,12.0,20.0,47,0.00,,,0.00,,2013-02-25 21:52:00,
2013-02-25 14:01:00,55.0,35.0,-100.00,WSW,255,12.0,20.0,47,0.00,,,0.00,,2013-02-25 22:01:00,
2013-02-25 14:11:00,55.0,35.0,-100.00,WSW,255,12.0,20.0,47,0.00,,,0.00,,2013-02-25 22:11:00,
2013-02-25 14:32:00,56.0,39.0,-100.00,WSW,257,11.0,18.0,52,0.00,,,0.00,,2013-02-25 22:32:00,
2013-02-25 14:42:00,56.0,39.0,-100.00,WSW,257,11.0,18.0,52,0.00,,,0.00,,2013-02-25 22:42:00,
2013-02-25 14:52:00,56.0,39.0,-100.00,WSW,257,11.0,18.0,52,0.00,,,0.00,,2013-02-25 22:52:00,
2013-02-25 15:01:00,56.0,39.0,-100.00,WSW,257,11.0,18.0,52,0.00,,,0.00,,2013-02-25 23:01:00,
2013-02-25 15:11:00,56.0,39.0,-100.00,WSW,257,11.0,18.0,52,0.00,,,0.00,,2013-02-25 23:11:00,
2013-02-25 15:32:00,58.0,41.0,-100.00,WSW,237,7.0,17.0,54,0.00,,,0.00,,2013-02-25 23:32:00,
2013-02-25 15:42:00,58.0,41.0,-100.00,WSW,237,7.0,17.0,54,0.00,,,0.00,,2013-02-25 23:42:00,
2013-02-25 15:52:00,58.0,41.0,-100.00,WSW,237,7.0,17.0,54,0.00,,,0.00,,2013-02-25 23:52:00,
2013-02-25 16:01:00,58.0,41.0,-100.00,WSW,237,7.0,17.0,54,0.00,,,0.00,,2013-02-26 00:01:00,
2013-02-25 16:11:00,58.0,41.0,-100.00,WSW,237,7.0,17.0,54,0.00,,,0.00,,2013-02-26 00:11:00,
2013-02-25 16:32:00,58.0,44.0,-100.00,West,264,6.0,12.0,59,0.00,,,0.00,,2013-02-26 00:32:00,
2013-02-25 16:42:00,58.0,44.0,-100.00,West,264,6.0,12.0,59,0.00,,,0.00,,2013-02-26 00:42:00,
2013-02-25 16:52:00,58.0,44.0,-100.00,West,264,6.0,12.0,59,0.00,,,0.00,,2013-02-26 00:52:00,
2013-02-25 17:01:00,58.0,44.0,-100.00,West,264,6.0,12.0,59,0.00,,,0.00,,2013-02-26 01:01:00,
2013-02-25 17:11:00,58.0,44.0,-100.00,West,264,6.0,12.0,59,0.00,,,0.00,,2013-02-26 01:11:00,
2013-02-25 17:42:00,57.0,44.0,-100.00,WNW,288,5.0,25.0,61,0.00,,,0.00,,2013-02-26 01:42:00,
2013-02-25 17:52:00,57.0,44.0,-100.00,WNW,288,5.0,25.0,61,0.00,,,0.00,,2013-02-26 01:52:00,
2013-02-25 18:01:00,57.0,44.0,-100.00,WNW,288,5.0,25.0,61,0.00,,,0.00,,2013-02-26 02:01:00,
2013-02-25 18:11:00,57.0,44.0,-100.00,WNW,288,5.0,25.0,61,0.00,,,0.00,,2013-02-26 02:11:00,
2013-02-25 18:42:00,50.0,42.0,-100.00,West,273,6.0,10.0,74,0.00,,,0.00,,2013-02-26 02:42:00,
2013-02-25 18:52:00,50.0,42.0,-100.00,West,273,6.0,10.0,74,0.00,,,0.00,,2013-02-26 02:52:00,
2013-02-25 19:01:00,50.0,42.0,-100.00,West,273,6.0,10.0,74,0.00,,,0.00,,2013-02-26 03:01:00,
2013-02-25 19:11:00,50.0,42.0,-100.00,West,273,6.0,10.0,74,0.00,,,0.00,,2013-02-26 03:11:00,
2013-02-25 19:42:00,47.0,41.0,-100.00,WSW,243,7.0,10.0,81,0.00,,,0.00,,2013-02-26 03:42:00,
2013-02-25 19:52:00,47.0,41.0,-100.00,WSW,243,7.0,10.0,81,0.00,,,0.00,,2013-02-26 03:52:00,
2013-02-25 20:01:00,47.0,41.0,-100.00,WSW,243,7.0,10.0,81,0.00,,,0.00,,2013-02-26 04:01:00,
2013-02-25 20:11:00,47.0,41.0,-100.00,WSW,243,7.0,10.0,81,0.00,,,0.00,,2013-02-26 04:11:00,
2013-02-25 20:42:00,47.0,41.0,-100.00,West,263,2.0,7.0,79,0.00,,,0.00,,2013-02-26 04:42:00,
2013-02-25 20:52:00,47.0,41.0,-100.00,West,263,2.0,7.0,79,0.00,,,0.00,,2013-02-26 04:52:00,
2013-02-25 21:01:00,47.0,41.0,-100.00,West,263,2.0,7.0,79,0.00,,,0.00,,2013-02-26 05:01:00,
2013-02-25 21:11:00,47.0,41.0,-100.00,West,263,2.0,7.0,79,0.00,,,0.00,,2013-02-26 05:11:00,
2013-02-25 21:32:00,47.0,39.0,-100.00,South,176,2.0,4.0,74,0.00,,,0.00,,2013-02-26 05:32:00,
2013-02-25 21:43:00,47.0,39.0,-100.00,South,176,2.0,4.0,74,0.00,,,0.00,,2013-02-26 05:43:00,
2013-02-25 21:52:00,47.0,39.0,-100.00,South,176,2.0,4.0,74,0.00,,,0.00,,2013-02-26 05:52:00,
2013-02-25 22:01:00,47.0,39.0,-100.00,South,176,2.0,4.0,74,0.00,,,0.00,,2013-02-26 06:01:00,
2013-02-25 22:11:00,47.0,39.0,-100.00,South,176,2.0,4.0,74,0.00,,,0.00,,2013-02-26 06:11:00,
2013-02-25 22:32:00,45.0,39.0,-100.00,SSW,198,0.0,3.0,80,0.00,,,0.00,,2013-02-26 06:32:00,
2013-02-25 22:42:00,45.0,39.0,-100.00,SSW,198,0.0,3.0,80,0.00,,,0.00,,2013-02-26 06:42:00,
2013-02-25 22:52:00,45.0,39.0,-100.00,SSW,198,0.0,3.0,80,0.00,,,0.00,,2013-02-26 06:52:00,
2013-02-25 23:01:00,45.0,39.0,-100.00,SSW,198,0.0,3.0,80,0.00,,,0.00,,2013-02-26 07:01:00,
2013-02-25 23:11:00,45.0,39.0,-100.00,SSW,198,0.0,3.0,80,0.00,,,0.00,,2013-02-26 07:11:00,
2013-02-25 23:42:00,46.0,36.0,-100.00,SW,218,1.0,4.0,69,0.00,,,0.00,,2013-02-26 07:42:00,
2013-02-25 23:52:00,46.0,36.0,-100.00,SW,218,1.0,4.0,69,0.00,,,0.00,,2013-02-26 07:52:00,